Flag for U.S.A. Weather past 2 weeks in Stamford, Connecticut, U.S.A.

Now
48 °F

Clear.


Feels Like: 48 °F
Forecast: 49 / 77 °F
Wind: No wind

Location: Westchester County Airport

Current Time: May 24, 2015 at 2:12:34 AM

Latest Report: May 24, 2015 at 12:56 AM


Visibility: 10 mi

Pressure: 30.34 "Hg

Humidity: 89%

Dew point: 45 °F

Location of StamfordLocation

Historic Weather in Stamford — Graph

°F

Stamford temperature yesterday

Maximum temperature yesterday: 66 °F (at 4:56 PM)
Minimum temperature yesterday: 42 °F (at 5:56 AM)
Average temperature yesterday: 54 °F

Past Weeks' High & Low Weather Summary

 TemperatureHumidityPressure
High82 °F (May 12, 1:56 PM)100% (May 9, 6:59 AM)30.41 "Hg (May 9, 6:59 AM)
Low42 °F (May 23, 5:56 AM)19% (May 14, 4:56 PM)29.72 "Hg (May 12, 5:56 PM)
Average62 °F68%30.09 "Hg
* Reported May 9 12:56 AM — May 24 12:56 AM, Stamford, Weather by CustomWeather, © 2015

Note: Actual official high and low records may vary slightly from our data, if they occured in-between our weather recording intervals... More about our weather records

Advertising

Stamford weather history for previous 24 hours

 ConditionsComfort  
Time TempWeatherWind HumidityBarometerVisibility
12:56 AM
Sun, May 24
48 °FClear.No wind89%30.34 "Hg10 mi
11:56 PM
Sat, May 23
51 °FClear.No wind80%30.34 "Hg10 mi
10:56 PM52 °FClear.3 mph77%30.34 "Hg10 mi
9:56 PM52 °FClear.3 mph72%30.34 "Hg10 mi
8:56 PM53 °FSunny.5 mph66%30.33 "Hg10 mi
7:56 PM58 °FSunny.8 mph47%30.32 "Hg10 mi
6:56 PM65 °FSunny.5 mph25%30.31 "Hg10 mi
5:56 PM66 °FSunny.12 mph23%30.32 "Hg10 mi
4:56 PM66 °FSunny.10 mph24%30.33 "Hg10 mi
3:56 PM64 °FSunny.7 mph26%30.34 "Hg10 mi
2:56 PM63 °FSunny.7 mph27%30.36 "Hg10 mi
1:56 PM60 °FSunny.7 mph27%30.37 "Hg10 mi
12:56 PM57 °FSunny.7 mph32%30.39 "Hg10 mi
11:56 AM55 °FSunny.14 mph33%30.40 "Hg10 mi
10:56 AM53 °FSunny.12 mph37%30.41 "Hg10 mi
9:56 AM52 °FSunny.10 mph40%30.40 "Hg10 mi
8:56 AM50 °FSunny.10 mph43%30.39 "Hg10 mi
7:56 AM48 °FSunny.13 mph48%30.36 "Hg10 mi
6:56 AM46 °FSunny.12 mph48%30.34 "Hg10 mi
5:56 AM42 °FClear.7 mph60%30.31 "Hg10 mi
4:56 AM47 °FClear.9 mph46%30.28 "Hg10 mi
3:56 AM49 °FClear.12 mph39%30.24 "Hg10 mi
2:56 AM51 °FClear.10 mph35%30.20 "Hg10 mi
Weather by CustomWeather, © 2015

See weather overviewHow to use our weather pages